Zurück zum Katalog

DELTA 1 DEB

AktivSSO
NORAD 21551·DEBRIS·🇺🇸 United States

Gestartet Jun 12, 1975 von Vandenberg Space Force Base

Loading…

Nächste Überflüge (nächste 24 Stunden)

TLE

AktuellSource: Space-Track

Epoche: Sep 14, 2026, 04:26 UTC

1 21551U 75052HF  26257.18513755  .00000064  00000-0  23487-3 0  9997
2 21551  99.7688 146.4156 0106551 101.1555  51.0342 13.24645127706403

Verfolge DELTA 1 DEB in Echtzeit mit AllMySat

Download on the App Store